Location: Ca�n Batista
(41.4099°N, 1.7752°E)
Time: 15:00:58
(UTC+00:00)

SL-8 Rocket - Pass Details

Date: 03 March 2021
Orbit: 957 x 990 km, 82.9° (Epoch: 21 April)

Event Time Altitude Azimuth Distance (km) Brightness Sun altitude
Rises 19:49:03 0° 194° (SSW) 3,670 7.0 -23.7°
Reaches altitude 10° 19:51:35 10° 197° (SSW) 2,721 6.4 -24.2°
Maximum altitude 19:57:47 66° 279° (W) 1,055 4.3 -25.3°
Drops below altitude 10° 20:03:59 10° 2° (N) 2,716 6.5 -26.4°
Sets 20:06:31 0° 5° (N) 3,662 7.1 -26.9°
